Temperature
10 10 10 10 10 10 10 10 10 10 10 10 10 10 10 10 11 11 11 11 11 11 11 11 11 11 11 11 11 11 11 11 11 11 11 11 11 11 11 11 11 11 11
9 9 9 9 9 9 9 9 9 9 10 10 10 10 10 10 10 10 10 10 11 10 10 11 11 11 11 10 10 10 10 10 11 11 10 10 10 10 10 10 10 10 10
8 8 8 8 8 8 8 8 8 9 9 9 9 9 9 10 10 10 10 10 10 10 10 10 10 10 10 10 10 10 10 10 10 10 10 10 10 10 10 10 10 10 10
7 8 8 8 8 8 8 8 8 8 8 8 8 9 9 9 9 9 9 9 9 10 10 10 10 10 10 10 10 10 10 10 10 10 10 10 10 10 10 9 10 10 10
7 7 7 7 7 7 7 7 7 7 7 8 8 8 8 8 9 9 9 9 9 9 9 9 9 9 10 10 9 9 9 9 9 9 9 9 9 9 9 9 9 9 9
6 6 6 6 6 6 6 6 6 6 7 7 7 7 7 8 8 8 8 8 8 9 9 9 9 9 9 9 9 9 9 9 9 9 9 9 9 9 9 9 9 9 9
5 5 5 5 5 5 6 6 6 6 6 6 6 6 7 7 7 7 7 8 8 8 8 8 8 8 8 9 9 8 8 8 8 8 8 8 8 8 8 8 8 8 8
5 4 5 5 5 5 5 5 5 5 5 5 5 5 6 6 6 7 7 7 7 7 7 8 8 8 8 8 8 8 8 8 8 8 8 8 8 8 8 8 8 8 8
4 4 4 4 4 4 4 4 4 4 4 5 5 5 5 5 5 5 6 6 6 7 7 7 7 7 7 7 7 7 7 7 7 7 7 7 7 7 7 7 7 7 7
3 3 3 3 3 3 3 4 4 4 4 4 4 4 4 4 4 4 5 5 5 6 6 6 6 6 6 6 7 7 7 7 7 7 7 7 7 7 7 7 7 7 7
3 3 3 3 3 3 3 3 3 3 3 3 3 3 4 4 4 4 4 4 5 5 5 5 5 6 6 6 6 6 6 6 6 7 7 7 6 6 6 6 6 6 6
2 2 2 2 2 2 2 2 2 2 3 3 3 3 3 3 3 3 3 3 4 4 4 5 5 5 5 5 5 5 6 6 6 6 6 6 6 6 6 6 6 6 6
2 2 2 2 2 2 2 2 2 2 2 2 2 2 2 3 3 3 3 3 3 3 4 4 4 4 4 5 5 5 5 5 5 5 5 5 5 5 5 6 5 6 5
1 1 1 1 1 1 1 2 2 2 2 2 2 2 2 2 2 2 2 2 2 2 3 3 4 4 4 4 4 4 4 4 4 4 5 5 5 5 5 5 5 5 5
1 1 1 1 1 1 1 1 1 1 1 1 1 1 1 2 2 2 2 2 2 2 2 3 3 3 3 3 3 4 4 4 4 4 4 4 4 4 4 4 4 4 4
0 0 0 0 0 1 1 1 1 1 1 1 1 1 1 1 1 1 1 2 2 1 1 2 2 2 2 3 3 3 3 3 3 3 3 3 3 3 3 3 3 3 3
-0 -0 -0 -0 -0 0 0 0 0 0 0 0 0 0 1 1 1 1 1 1 1 1 1 1 1 2 2 2 2 2 2 2 3 3 3 3 3 3 3 3 3 3 3
-1 -0 -0 -0 -0 -0 -0 -0 -0 -0 -0 0 0 0 0 0 0 0 0 0 0 1 1 1 1 1 1 1 2 2 2 2 2 2 2 2 2 2 2 2 2 2 2
-1 -1 -1 -1 -1 -1 -1 -1 -1 -1 -0 -0 -0 -0 -0 -0 -0 -0 -0 -0 -0 -0 0 0 0 0 1 1 1 1 1 1 1 1 1 1 1 1 1 2 2 2 2
-2 -1 -1 -1 -1 -1 -1 -1 -1 -1 -1 -1 -1 -1 -1 -1 -1 -1 -1 -1 -1 -1 -0 -0 -0 0 0 0 0 0 1 1 1 1 1 1 1 1 1 1 1 1 1
-2 -2 -2 -2 -2 -2 -2 -2 -2 -2 -1 -1 -1 -1 -1 -1 -1 -1 -1 -1 -1 -1 -1 -1 -1 -1 -1 -1 -1 -1 -0 -0 0 0 0 0 0 0 0 0 0 0 0
-3 -2 -2 -2 -2 -2 -2 -2 -2 -2 -2 -2 -2 -2 -2 -2 -2 -2 -2 -2 -2 -2 -2 -2 -1 -1 -1 -1 -1 -1 -1 -1 -1 -1 -1 -0 -0 -0 -0 -0 -0 -0 -0
-3 -3 -3 -3 -3 -2 -3 -2 -2 -2 -2 -2 -2 -2 -2 -2 -2 -2 -2 -2 -2 -2 -2 -2 -2 -2 -2 -2 -2 -2 -2 -2 -2 -2 -1 -1 -1 -1 -1 -1 -1 -1 -1
-3 -3 -3 -3 -3 -3 -3 -3 -2 -2 -2 -2 -3 -3 -3 -2 -2 -2 -2 -2 -2 -2 -2 -2 -2 -2 -2 -2 -2 -2 -2 -2 -2 -2 -2 -2 -2 -2 -2 -2 -1 -1 -1
-4 -4 -4 -3 -3 -3 -3 -3 -3 -3 -3 -3 -3 -3 -3 -3 -3 -3 -3 -3 -2 -2 -3 -3 -3 -3 -3 -3 -3 -3 -3 -3 -3 -3 -3 -3 -3 -3 -2 -2 -2 -2 -2
-4 -4 -4 -4 -4 -4 -3 -3 -3 -3 -3 -3 -3 -3 -3 -3 -3 -3 -3 -3 -3 -3 -3 -3 -3 -3 -3 -3 -3 -3 -3 -3 -3 -3 -3 -4 -4 -4 -4 -3 -3 -3 -3
Wind_Speed
4 4 4 5 5 5 5 4 4 4 4 5 5 4 4 5 5 4 4 5 4 4 4 4 4 4 4 4 3 3 3 3 2 2 2 2 2 2 2 2 2 2 2
4 3 3 4 4 4 4 3 3 3 3 3 3 4 4 4 4 4 5 5 5 4 4 3 2 2 3 3 3 2 3 3 2 2 3 2 2 2 2 3 3 3 3
5 4 3 3 4 4 4 3 3 3 3 3 4 4 3 4 4 4 4 4 4 4 3 2 2 1 1 2 2 2 3 3 3 3 3 3 3 3 3 3 3 3 4
6 4 3 3 4 4 3 2 2 2 3 3 3 4 4 4 4 4 4 4 3 3 3 3 3 2 2 1 1 1 2 3 4 4 4 4 4 4 3 4 4 4 5
7 5 3 3 4 3 3 2 2 2 2 3 3 3 4 3 3 4 3 4 3 4 4 4 4 4 4 2 2 2 3 3 4 4 5 5 4 4 4 4 4 4 5
7 6 4 4 4 2 2 2 2 2 1 2 3 3 3 3 3 3 3 3 4 3 4 4 4 4 4 4 3 3 3 3 4 5 5 5 5 5 5 5 4 4 5
7 5 4 4 3 2 2 2 1 2 2 2 2 3 3 2 2 2 3 3 3 4 4 4 4 5 4 4 5 4 4 4 5 5 5 5 5 6 5 5 4 4 4
6 5 4 2 2 2 3 3 2 1 2 2 1 1 2 3 3 3 3 3 3 4 4 4 5 5 5 5 5 5 5 5 6 6 6 5 5 5 5 5 5 5 4
5 5 4 4 3 2 1 2 2 1 1 2 1 0 1 2 3 3 3 3 4 3 3 4 4 4 4 5 5 6 5 5 5 6 7 7 6 5 4 4 4 4 4
5 5 4 4 3 2 1 1 1 1 1 1 1 1 1 1 1 2 2 3 3 3 3 3 3 4 4 5 5 6 6 6 6 6 6 6 6 6 5 4 4 4 4
4 4 4 3 2 2 1 2 2 2 1 1 1 2 1 1 1 1 2 3 3 3 3 2 2 3 4 4 4 5 6 6 6 6 6 7 6 6 6 5 4 4 4
3 4 4 3 2 2 2 2 2 2 1 1 1 1 1 1 1 1 2 3 3 3 3 2 1 2 3 4 4 5 6 5 5 5 6 6 6 6 6 4 4 4 4
3 3 4 3 2 2 2 2 1 2 1 1 1 2 1 1 1 1 1 2 3 3 2 2 1 1 3 3 4 5 6 5 5 5 6 6 6 7 7 5 5 4 5
3 4 4 3 3 3 2 1 2 2 1 1 2 2 1 1 1 1 1 1 2 3 2 2 1 1 3 3 3 5 5 6 5 5 5 5 6 6 6 5 5 5 5
4 4 4 3 3 3 2 2 2 2 2 2 2 1 1 2 1 1 1 2 2 2 3 2 2 2 3 2 4 4 5 5 6 4 4 4 4 5 5 5 5 5 5
4 4 4 4 3 3 2 2 2 3 2 2 2 1 1 1 1 1 1 2 2 3 3 2 2 2 3 3 4 5 5 6 6 5 4 4 4 4 4 5 5 5 5
4 4 4 4 4 3 3 2 2 2 2 2 2 2 2 2 1 2 1 1 2 2 3 3 2 2 2 2 3 4 5 5 6 6 5 5 4 3 3 4 5 5 5
4 4 4 4 4 3 3 2 3 2 3 3 2 2 2 2 2 2 2 2 2 2 3 3 2 2 2 1 1 2 4 4 5 5 5 5 5 4 4 4 5 5 5
3 3 3 3 3 3 3 3 3 3 3 3 3 3 3 2 2 2 2 2 2 2 2 3 3 2 1 0 1 2 3 3 5 5 5 5 6 5 5 4 5 5 5
3 3 4 3 3 3 3 3 3 3 3 3 3 3 3 3 4 3 3 3 2 2 2 2 2 1 1 1 0 1 2 3 3 4 4 5 6 6 6 6 6 5 5
3 3 3 3 3 3 3 3 3 3 3 3 3 3 4 4 5 4 3 2 2 2 2 2 2 1 1 0 0 0 1 2 3 2 2 3 4 4 6 7 6 6 5
3 3 3 3 3 3 5 4 3 2 3 3 3 3 4 4 5 5 5 4 3 3 3 2 2 2 2 1 1 1 0 2 2 2 2 3 2 2 4 5 6 6 6
3 3 4 4 4 5 6 5 4 2 2 3 3 3 3 4 3 2 3 3 3 4 4 3 3 3 3 3 2 1 1 1 2 2 2 3 2 2 4 5 7 6 6
3 3 4 4 4 5 6 6 5 1 2 2 3 3 4 4 3 2 2 2 2 2 2 2 3 3 3 3 3 2 2 1 1 1 1 2 2 2 4 6 6 6 7
3 4 4 4 4 5 6 6 4 1 2 3 3 3 3 3 4 3 2 1 1 2 2 2 3 3 2 2 1 1 1 0 1 2 1 0 2 3 3 3 4 6 7
4 4 4 3 4 4 6 6 4 1 2 2 3 3 3 3 4 2 2 2 2 2 1 0 0 1 0 1 0 1 2 1 1 1 1 1 1 3 2 2 3 5 6
Wind_Direction
21 18 15 20 21 24 26 24 24 27 27 23 24 25 14 4 359 352 345 342 322 306 294 270 230 215 202 193 196 195 194 184 177 184 192 194 189 204 212 218 234 238 240
18 15 13 14 13 13 18 25 20 20 19 24 19 19 13 1 2 357 351 346 338 324 311 301 259 223 209 204 199 202 200 195 193 201 210 215 215 226 238 243 248 251 256
16 12 13 12 3 2 14 31 33 34 21 15 6 6 7 5 359 360 0 359 355 345 341 343 349 301 239 224 218 216 215 212 210 218 229 228 233 243 257 259 262 267 263
18 15 15 9 2 7 18 23 32 24 14 3 354 353 3 9 5 5 17 16 18 14 13 15 19 11 335 256 252 274 273 245 236 232 230 232 237 247 252 264 266 270 268
13 12 7 6 9 18 18 14 18 20 16 1 352 347 354 353 358 11 19 18 25 30 32 23 27 19 11 352 307 291 303 272 250 246 242 240 244 248 252 263 265 270 270
11 12 9 6 15 21 16 15 14 19 20 355 354 350 340 339 358 7 7 23 30 34 38 40 43 29 19 4 344 318 297 298 283 266 257 256 257 257 255 259 265 274 278
9 11 7 5 10 15 3 1 6 24 9 352 357 343 340 354 10 12 18 27 25 33 45 44 50 47 35 13 356 334 317 308 315 313 294 282 274 267 259 259 264 272 284
7 8 4 358 2 13 13 8 8 10 346 358 12 330 329 342 7 6 11 24 14 32 42 40 46 45 40 34 11 352 339 323 319 320 318 320 296 275 273 268 266 274 277
4 4 2 0 358 18 4 348 354 359 299 326 357 250 229 262 317 338 358 12 11 10 21 39 42 44 43 39 24 3 352 336 325 318 315 312 312 298 292 282 274 279 284
357 357 3 3 356 356 337 319 349 320 278 292 317 316 277 227 258 312 328 359 6 360 5 21 29 33 38 35 17 2 355 350 340 334 328 318 309 301 296 292 284 286 287
348 351 355 357 347 338 322 317 326 327 290 276 282 294 323 341 324 243 290 323 343 338 342 357 17 22 28 28 11 356 349 348 350 349 339 331 322 309 299 300 298 288 290
323 335 340 337 329 319 302 299 299 304 288 296 299 294 256 256 274 270 266 292 304 311 320 336 353 18 19 20 1 350 348 346 338 337 334 330 328 314 305 302 307 305 296
312 309 317 310 307 303 294 291 278 292 294 294 282 283 279 261 263 264 242 274 287 293 309 321 328 14 8 9 2 351 345 337 327 328 331 331 331 328 322 308 303 306 302
292 298 303 303 305 305 298 279 263 270 287 281 289 287 301 296 277 236 224 230 288 294 298 288 315 335 358 355 354 358 352 340 333 332 336 333 333 332 334 329 320 319 313
300 305 303 296 293 296 283 261 263 272 267 266 267 271 290 288 284 273 230 210 216 260 274 271 285 312 342 354 354 1 346 337 335 330 329 330 330 329 337 335 334 329 326
300 299 298 298 293 289 278 256 259 262 256 265 257 263 280 282 284 287 263 260 223 218 255 259 256 289 328 342 351 353 336 341 340 336 335 335 332 329 331 336 334 329 325
296 291 286 289 290 283 273 259 257 253 248 262 273 263 270 273 282 290 289 267 249 226 244 272 269 284 302 323 349 346 332 334 334 337 338 336 334 331 337 335 331 324 324
292 287 286 282 283 282 277 262 265 258 247 253 261 264 272 273 283 284 274 263 254 241 224 256 271 276 276 284 335 337 334 337 332 335 347 348 351 347 339 331 325 324 319
301 304 299 286 285 280 269 265 261 260 254 250 247 246 255 253 262 267 262 260 260 256 232 230 253 256 266 300 6 346 346 344 342 342 356 1 360 357 354 346 338 337 330
300 298 298 291 288 283 269 265 263 265 261 262 256 248 248 241 248 251 249 249 261 258 240 235 246 254 265 256 107 6 352 354 346 345 353 353 359 5 2 354 350 347 339
308 306 307 308 305 290 274 270 261 267 262 268 271 265 261 259 260 252 245 232 232 244 239 235 244 237 229 219 250 288 322 343 338 353 354 346 345 350 349 350 350 349 347
311 313 309 308 305 301 304 297 292 270 265 262 270 275 274 265 263 265 264 251 232 232 233 231 235 233 232 221 214 245 259 339 321 344 2 339 347 349 335 338 343 344 349
311 312 306 301 296 302 312 309 309 293 265 264 269 278 285 281 276 256 265 269 258 247 235 233 228 226 219 215 210 227 257 289 282 298 346 326 350 340 335 339 344 347 351
302 299 301 300 300 307 315 317 325 320 278 278 268 260 268 278 273 252 252 262 268 260 259 249 233 232 226 213 206 209 213 313 325 318 331 308 327 329 330 331 343 357 2
302 299 297 297 299 304 313 315 328 298 303 298 288 274 272 263 272 258 226 240 269 288 293 272 263 252 238 236 207 129 122 77 325 317 343 302 321 326 326 328 342 356 356
298 303 304 301 294 294 305 313 323 291 294 296 295 288 287 285 273 256 205 208 240 259 260 332 0 343 220 188 197 169 186 200 273 296 317 347 318 340 332 319 324 336 340
Height
1512 1512 1512 1512 1511 1511 1511 1511 1511 1511 1511 1511 1512 1512 1513 1513 1513 1514 1515 1515 1516 1517 1518 1518 1519 1520 1521 1522 1523 1523 1524 1524 1525 1526 1527 1527 1528 1528 1528 1529 1529 1530 1530
1509 1509 1509 1509 1509 1509 1509 1509 1509 1509 1509 1509 1509 1510 1510 1510 1511 1511 1511 1512 1513 1514 1515 1515 1516 1517 1518 1519 1520 1521 1521 1522 1522 1523 1524 1525 1525 1526 1526 1527 1527 1527 1527
1507 1507 1506 1506 1506 1506 1506 1506 1506 1506 1506 1506 1507 1507 1507 1507 1508 1508 1508 1509 1510 1510 1511 1512 1513 1514 1515 1516 1517 1518 1519 1519 1520 1520 1521 1522 1522 1523 1523 1524 1524 1524 1524
1504 1504 1504 1503 1503 1504 1504 1503 1503 1503 1503 1504 1504 1504 1504 1504 1505 1505 1506 1506 1507 1507 1508 1509 1510 1511 1512 1513 1514 1514 1515 1516 1516 1517 1518 1518 1519 1519 1520 1521 1521 1521 1521
1502 1501 1501 1500 1501 1501 1501 1501 1501 1501 1500 1501 1501 1501 1501 1501 1502 1502 1502 1503 1504 1504 1505 1506 1507 1508 1508 1509 1510 1511 1512 1512 1513 1513 1514 1514 1515 1516 1516 1517 1517 1517 1518
1500 1499 1498 1498 1498 1498 1498 1498 1498 1498 1498 1498 1498 1498 1498 1498 1499 1499 1499 1500 1500 1501 1502 1502 1503 1504 1505 1505 1506 1507 1508 1509 1510 1510 1510 1510 1511 1512 1512 1513 1513 1514 1514
1497 1496 1496 1496 1495 1495 1495 1495 1496 1496 1496 1496 1496 1496 1496 1495 1496 1496 1496 1497 1497 1498 1498 1499 1500 1501 1501 1502 1503 1504 1505 1505 1506 1506 1506 1506 1507 1508 1508 1509 1509 1510 1510
1495 1494 1494 1493 1493 1493 1493 1493 1493 1493 1493 1494 1494 1494 1493 1494 1492 1493 1494 1494 1494 1494 1495 1495 1496 1497 1498 1498 1499 1500 1501 1501 1502 1502 1502 1502 1503 1504 1503 1504 1505 1506 1506
1493 1492 1491 1491 1490 1490 1490 1491 1491 1491 1491 1491 1492 1493 1492 1490 1490 1491 1491 1491 1492 1492 1492 1492 1493 1493 1494 1495 1495 1496 1496 1497 1498 1498 1499 1499 1499 1500 1500 1500 1501 1502 1502
1491 1490 1490 1489 1488 1488 1488 1488 1488 1489 1489 1488 1489 1490 1491 1490 1490 1488 1489 1489 1489 1489 1489 1489 1489 1490 1491 1491 1491 1492 1492 1493 1493 1493 1494 1494 1495 1496 1496 1496 1497 1497 1498
1488 1488 1487 1487 1486 1486 1485 1485 1486 1486 1486 1486 1486 1486 1487 1487 1487 1487 1486 1486 1486 1486 1486 1486 1486 1487 1487 1488 1488 1489 1489 1489 1489 1489 1490 1490 1490 1491 1491 1491 1492 1493 1493
1485 1485 1485 1484 1484 1483 1483 1483 1483 1483 1483 1483 1483 1484 1484 1484 1484 1484 1484 1483 1483 1484 1484 1483 1483 1484 1484 1484 1484 1485 1485 1485 1485 1485 1485 1485 1485 1486 1487 1487 1488 1488 1489
1482 1482 1482 1481 1481 1480 1480 1480 1480 1480 1480 1480 1480 1481 1481 1481 1482 1482 1482 1481 1481 1480 1481 1481 1481 1481 1481 1481 1481 1481 1481 1481 1481 1481 1481 1481 1481 1482 1482 1483 1484 1484 1485
1479 1479 1479 1478 1478 1478 1478 1477 1477 1477 1477 1477 1478 1478 1478 1478 1479 1479 1479 1479 1478 1478 1478 1478 1478 1478 1478 1478 1478 1478 1477 1477 1477 1477 1477 1477 1477 1478 1478 1479 1479 1479 1480
1477 1476 1475 1475 1475 1474 1474 1474 1474 1474 1474 1475 1475 1474 1475 1475 1476 1476 1476 1477 1477 1476 1475 1475 1475 1475 1475 1475 1474 1474 1474 1474 1473 1473 1474 1474 1474 1474 1474 1474 1475 1475 1475
1474 1473 1472 1472 1471 1471 1471 1471 1471 1471 1471 1472 1471 1471 1472 1472 1472 1473 1473 1473 1473 1473 1472 1472 1472 1472 1472 1472 1471 1471 1471 1470 1470 1470 1470 1470 1471 1471 1470 1470 1470 1470 1471
1470 1469 1468 1468 1468 1468 1468 1468 1468 1468 1468 1468 1468 1468 1469 1469 1469 1469 1469 1470 1470 1470 1469 1468 1469 1469 1469 1468 1468 1468 1468 1467 1467 1467 1467 1467 1466 1466 1466 1466 1466 1466 1466
1467 1466 1465 1465 1464 1464 1464 1464 1465 1465 1465 1465 1465 1465 1466 1466 1466 1466 1466 1466 1466 1466 1466 1465 1465 1465 1465 1465 1465 1465 1465 1465 1464 1464 1464 1463 1462 1462 1463 1462 1462 1462 1462
1464 1464 1463 1462 1462 1461 1461 1461 1461 1462 1462 1462 1462 1462 1462 1462 1462 1462 1463 1463 1462 1462 1462 1462 1462 1462 1462 1462 1462 1462 1462 1462 1462 1461 1461 1460 1460 1459 1459 1459 1458 1458 1458
1462 1461 1460 1459 1459 1459 1458 1458 1458 1459 1459 1459 1459 1459 1459 1459 1459 1459 1459 1459 1459 1459 1459 1458 1458 1459 1459 1459 1459 1459 1459 1459 1459 1459 1458 1458 1458 1457 1456 1455 1454 1454 1454
1459 1458 1457 1457 1456 1456 1456 1456 1456 1456 1456 1456 1456 1456 1456 1456 1456 1456 1456 1456 1456 1455 1455 1455 1455 1455 1456 1456 1457 1457 1456 1456 1456 1456 1456 1455 1455 1454 1453 1453 1452 1451 1451
1456 1455 1455 1454 1454 1454 1453 1453 1453 1453 1453 1453 1453 1453 1452 1452 1452 1452 1452 1452 1452 1452 1452 1452 1452 1453 1453 1454 1454 1454 1454 1453 1453 1454 1453 1452 1452 1451 1451 1450 1449 1448 1448
1454 1453 1452 1452 1451 1451 1451 1451 1451 1450 1450 1450 1449 1449 1449 1449 1449 1449 1449 1449 1449 1449 1450 1450 1450 1450 1450 1451 1451 1451 1452 1452 1451 1451 1450 1448 1449 1448 1448 1447 1447 1446 1445
1451 1451 1450 1449 1449 1449 1448 1448 1448 1447 1447 1447 1447 1446 1447 1446 1446 1446 1446 1446 1446 1446 1447 1447 1447 1448 1448 1449 1449 1450 1450 1450 1450 1450 1449 1447 1446 1446 1446 1445 1444 1443 1442
1449 1448 1448 1447 1446 1446 1446 1446 1446 1445 1444 1444 1444 1444 1444 1443 1443 1443 1443 1443 1443 1443 1444 1444 1445 1445 1446 1447 1447 1448 1447 1447 1446 1446 1447 1445 1444 1443 1442 1442 1442 1441 1440
1446 1446 1445 1445 1444 1444 1443 1443 1443 1442 1442 1441 1441 1441 1441 1441 1441 1440 1440 1440 1440 1441 1441 1442 1442 1443 1444 1445 1445 1446 1445 1445 1444 1444 1444 1444 1442 1441 1439 1439 1439 1439 1438